TimePST,TemperatureF,Dew PointF,Humidity,Sea Level PressureIn,VisibilityMPH,Wind Direction,Wind SpeedMPH,Gust SpeedMPH,PrecipitationIn,Events,Conditions,WindDirDegrees,DateUTC
12:54 AM,42.1,35.1,76,30.19,10.0,East,4.6,-,N/A,,Clear,100,2013-01-18 08:54:00
1:54 AM,39.9,33.1,77,30.19,10.0,East,4.6,-,N/A,,Clear,80,2013-01-18 09:54:00
2:54 AM,41.0,33.1,73,30.19,10.0,East,3.5,-,N/A,,Clear,90,2013-01-18 10:54:00
3:54 AM,39.9,32.0,73,30.17,10.0,East,3.5,-,N/A,,Clear,100,2013-01-18 11:54:00
4:54 AM,42.1,30.0,62,30.16,10.0,SE,3.5,-,N/A,,Clear,130,2013-01-18 12:54:00
5:54 AM,42.1,30.0,62,30.16,10.0,East,3.5,-,N/A,,Clear,100,2013-01-18 13:54:00
6:54 AM,39.0,28.9,67,30.17,10.0,Calm,Calm,-,N/A,,Clear,0,2013-01-18 14:54:00
7:54 AM,39.9,30.0,68,30.19,10.0,Calm,Calm,-,N/A,,Clear,0,2013-01-18 15:54:00
8:54 AM,46.9,32.0,56,30.22,10.0,East,4.6,-,N/A,,Clear,100,2013-01-18 16:54:00
9:54 AM,55.9,35.1,45,30.23,10.0,Calm,Calm,-,N/A,,Clear,0,2013-01-18 17:54:00
10:54 AM,60.1,36.0,41,30.22,10.0,Calm,Calm,-,N/A,,Clear,0,2013-01-18 18:54:00
11:54 AM,61.0,33.1,35,30.20,10.0,Calm,Calm,-,N/A,,Clear,0,2013-01-18 19:54:00
12:54 PM,64.9,28.0,25,30.17,10.0,Calm,Calm,-,N/A,,Clear,0,2013-01-18 20:54:00
1:54 PM,66.9,30.0,25,30.16,10.0,NW,3.5,-,N/A,,Clear,320,2013-01-18 21:54:00
2:54 PM,66.9,30.0,25,30.16,10.0,NW,3.5,-,N/A,,Clear,320,2013-01-18 22:54:00
3:54 PM,64.9,30.0,27,30.16,10.0,Calm,Calm,-,N/A,,Clear,0,2013-01-18 23:54:00
4:54 PM,62.1,35.1,37,30.16,10.0,Calm,Calm,-,N/A,,Clear,0,2013-01-19 00:54:00
5:54 PM,54.0,33.1,45,30.17,10.0,East,4.6,-,N/A,,Clear,90,2013-01-19 01:54:00
6:54 PM,48.9,32.0,52,30.17,10.0,East,3.5,-,N/A,,Clear,80,2013-01-19 02:54:00
7:54 PM,46.9,32.0,56,30.17,10.0,East,4.6,-,N/A,,Clear,100,2013-01-19 03:54:00
8:54 PM,45.0,32.0,60,30.18,10.0,East,3.5,-,N/A,,Clear,100,2013-01-19 04:54:00
9:54 PM,46.0,33.1,61,30.19,10.0,East,3.5,-,N/A,,Clear,80,2013-01-19 05:54:00
10:54 PM,45.0,33.1,63,30.18,10.0,East,5.8,-,N/A,,Clear,100,2013-01-19 06:54:00
11:54 PM,43.0,33.1,68,30.17,10.0,East,4.6,-,N/A,,Clear,100,2013-01-19 07:54:00